Weather History for KIPT - January, 2014

Change the Weather History Date:

Thursday, January 23, 2014

  Actual Average Record
Temperature  
Mean Temperature 10 °F 27 °F  
Max Temperature 18 °F 34 °F 66 °F (1906)
Min Temperature 2 °F 19 °F -11 °F (1970)
Degree Days  
Heating Degree Days 55 38  
Month to date heating degree days 965 882  
Since 1 July heating degree days 3281 3175  
Cooling Degree Days 0 0  
Month to date cooling degree days 0 0  
Year to date cooling degree days 0 0  
Moisture  
Dew Point 1 °F    
Average Humidity 72    
Maximum Humidity 86    
Minimum Humidity 58    
Precipitation  
Precipitation T in 0.09 in 0.95 in (1982)
Month to date precipitation 1.22 2.00  
Year to date precipitation 1.22 2.00  
Snow  
Snow T in 0.30 in 9.20 in (1966)
Month to date snowfall 7.3 7.6  
Since 1 July snowfall 23.6 16.3  
Snow Depth 1.00 in    
Sea Level Pressure  
Sea Level Pressure 30.18 in    
Wind  
Wind Speed 5 mph (WNW)    
Max Wind Speed 15 mph    
Max Gust Speed 21 mph    
Visibility 8 miles    
Events Snow    
T = Trace of Precipitation, MM = Missing Value Source: NWS Daily Summary

Daily Weather History Graph

Daily Weather History Graph

Search for Another Location

Airport or City:

Trip Planner

Search our weather history database for the weather conditions in past years. The results will help you decide how hot, cold, wet, or windy it might be!

Date:

Astronomy

Jan. 23, 2014 Rise Set
Actual Time 7:26 AM EST 5:13 PM EST
Civil Twilight 6:56 AM EST 5:42 PM EST
Nautical Twilight 6:23 AM EST 6:16 PM EST
Astronomical Twilight 5:50 AM EST 6:49 PM EST
Moon No Moon Rise 10:55 AM EST (1/23)
Length of Visible Light 10h 46m
Length of Day
9h 46m
Waning Gibbous, 55% of the Moon is Illuminated
Jan 23
Waning Gibbous
Jan 24
Last Quarter
Jan 30
New
Feb 6
First Quarter
Feb 14
Full

Hourly Weather History & Observations

Time (EST) Temp. Windchill Dew Point Humidity Pressure Visibility Wind Dir Wind Speed Gust Speed Precip Events Conditions
12:54 AM 6.1 °F - -6.0 °F 58% 30.09 in 10.0 mi Calm Calm - N/A   Mostly Cloudy
1:54 AM 7.0 °F - -2.9 °F 64% 30.09 in 10.0 mi Calm Calm - N/A   Scattered Clouds
2:54 AM 7.0 °F - -2.9 °F 64% 30.10 in 7.0 mi Calm Calm - 0.00 in Snow Light Snow
3:54 AM 7.0 °F - -2.0 °F 67% 30.10 in 7.0 mi Calm Calm - 0.00 in   Overcast
4:54 AM 6.1 °F - -2.0 °F 69% 30.11 in 10.0 mi Calm Calm - N/A   Overcast
5:10 AM 5.0 °F -2.1 °F -0.4 °F 78% 30.08 in 10.0 mi North 3.5 mph - N/A   Scattered Clouds
5:54 AM 3.0 °F - -0.9 °F 84% 30.12 in 10.0 mi Calm Calm - N/A   Clear
6:54 AM 3.0 °F - -0.9 °F 84% 30.14 in 10.0 mi Calm Calm - N/A   Mostly Cloudy
7:37 AM 3.2 °F - -0.4 °F 85% 30.12 in 2.5 mi Calm Calm - 0.00 in Snow Light Snow
7:50 AM 3.2 °F -6.2 °F -2.2 °F 78% 30.12 in 5.0 mi North 4.6 mph - 0.00 in Snow Light Snow
7:54 AM 3.9 °F - -2.0 °F 76% 30.16 in 8.0 mi Calm Calm - 0.00 in   Mostly Cloudy
8:02 AM 3.2 °F -4.2 °F -2.2 °F 78% 30.12 in 10.0 mi North 3.5 mph - N/A   Scattered Clouds
8:54 AM 6.1 °F - -0.0 °F 76% 30.17 in 10.0 mi Calm Calm - N/A   Clear
9:54 AM 8.1 °F - 1.9 °F 76% 30.19 in 10.0 mi Calm Calm - N/A   Clear
10:54 AM 12.0 °F 4.1 °F 3.0 °F 67% 30.19 in 10.0 mi West 4.6 mph - N/A   Scattered Clouds
11:54 AM 15.1 °F 4.2 °F 3.9 °F 61% 30.18 in 10.0 mi WSW 8.1 mph - 0.00 in   Mostly Cloudy
12:54 PM 17.1 °F 3.6 °F 3.9 °F 56% 30.17 in 9.0 mi WSW 12.7 mph - 0.00 in Snow Light Snow
1:13 PM 15.8 °F 5.1 °F 5.0 °F 62% 30.13 in 2.5 mi WSW 8.1 mph - 0.00 in Snow Light Snow
1:23 PM 15.8 °F 5.1 °F 5.0 °F 62% 30.13 in 4.0 mi WSW 8.1 mph - 0.00 in Snow Light Snow
1:54 PM 17.1 °F 6.6 °F 7.0 °F 65% 30.17 in 4.0 mi WSW 8.1 mph - 0.00 in   Overcast
2:30 PM 15.8 °F 3.4 °F 5.0 °F 62% 30.14 in 3.0 mi West 10.4 mph - 0.00 in Snow Light Snow
2:54 PM 17.1 °F 4.3 °F 6.1 °F 62% 30.18 in 3.0 mi WNW 11.5 mph 17.3 mph 0.00 in Snow Light Snow
3:17 PM 17.6 °F 3.7 °F 6.8 °F 63% 30.16 in 3.0 mi WSW 13.8 mph - 0.00 in Snow Light Snow
3:54 PM 18.0 °F 6.1 °F 5.0 °F 57% 30.20 in 10.0 mi West 10.4 mph - 0.00 in   Overcast
4:54 PM 16.0 °F 7.4 °F 3.0 °F 57% 30.23 in 10.0 mi WNW 5.8 mph - 0.00 in   Overcast
5:54 PM 15.1 °F 5.2 °F 3.9 °F 61% 30.26 in 10.0 mi WNW 6.9 mph - N/A   Scattered Clouds
6:54 PM 14.0 °F 3.9 °F 3.9 °F 64% 30.29 in 10.0 mi WNW 6.9 mph - 0.00 in   Scattered Clouds
7:54 PM 12.9 °F 3.8 °F -0.0 °F 56% 30.32 in 10.0 mi WNW 5.8 mph - N/A   Clear
8:54 PM 12.0 °F 1.5 °F -0.0 °F 59% 30.33 in 10.0 mi NW 6.9 mph - N/A   Clear
9:54 PM 12.0 °F 1.5 °F -0.9 °F 56% 30.34 in 10.0 mi WNW 6.9 mph - N/A   Scattered Clouds
10:54 PM 12.0 °F -0.4 °F 1.0 °F 61% 30.35 in 10.0 mi WNW 9.2 mph - N/A   Mostly Cloudy
11:54 PM 12.0 °F 0.5 °F 1.0 °F 61% 30.35 in 10.0 mi West 8.1 mph - N/A   Scattered Clouds